Location: Peterborough
(44.3091°N, 78.3197°W)
Time: 23:49:55
(UTC-04:00)

S-56A Canister/Altair - Pass Details

Date: 30 March 2023
Orbit: 639 x 2492 km, 38.9° (Epoch: 02 June)

Event Time Altitude Azimuth Distance (km) Brightness Sun altitude
Rises 23:16:34 0° 280° (W) 5,470 12.5 -34.6°
Reaches altitude 10° 23:19:57 10° 276° (W) 4,662 11.9 -34.9°
Maximum altitude 23:33:00 53° 205° (SSW) 2,864 10.0 -36.3°
Enters shadow 23:34:00 53° 193° (SSW) 2,890 10.0 -36.4°
